Ainsworth, NE

7:19 PM CDT on October 15, 2019 (GMT -0500)
Ainsworth Municipal

Weather History for KANW - August, 2019

Change the Weather History Date:

Saturday, August 31, 2019

  Actual Average Record
Temperature  
Mean Temperature 68 °F -  
Max Temperature 79 °F 83 °F 93 °F (2012)
Min Temperature 57 °F 57 °F 51 °F (2001)
Cooling Degree Days 3    
Growing Degree Days 18 (Base 50)    
Moisture  
Dew Point 64 °F    
Average Humidity 88    
Maximum Humidity 100    
Minimum Humidity 57    
Precipitation  
Precipitation 0.01 in - - ()
Sea Level Pressure  
Sea Level Pressure 30.12 in    
Wind  
Wind Speed 7 mph ()    
Max Wind Speed 14 mph    
Max Gust Speed -    
Visibility 9.1 miles    
Events Rain , Thunderstorm    
Averages and records for this station are not official NWS values.
T = Trace of Precipitation, MM = Missing Value Source: Averaged Metar Reports

Daily Weather History Graph

Daily Weather History Graph

Search for Another Location

Airport or City:

Astronomy

Aug. 31, 2019 Rise Set
Actual Time 7:03 AM CDT 8:16 PM CDT
Civil Twilight 6:34 AM CDT 8:45 PM CDT
Nautical Twilight 5:59 AM CDT 9:19 PM CDT
Astronomical Twilight 5:22 AM CDT 9:56 PM CDT
Moon 8:22 AM CDT (8/31) 9:28 PM CDT (8/31)
Length of Visible Light 14h 10m
Length of Day
13h 12m
New Moon, 3% of the Moon is Illuminated
Aug 31
New Moon
Sep 5
First Quarter
Sep 13
Full
Sep 21
Last Quarter
Sep 28
New

Hourly Weather History & Observations

Time (CDT) Temp. Dew Point Humidity Pressure Visibility Wind Dir Wind Speed Gust Speed Precip Events Conditions
12:15 AM 57.2 °F 57.2 °F 100% 30.21 in 4.0 mi ESE 9.2 mph - N/A Rain Light Rain
12:35 AM 57.2 °F 57.2 °F 100% 30.19 in 5.0 mi ESE 9.2 mph - 0.01 in   Light Drizzle
12:55 AM 57.4 °F 57.4 °F 100% 30.19 in 7.0 mi ESE 10.4 mph - 0.01 in   Overcast
1:15 AM 57.7 °F 57.7 °F 100% 30.19 in 7.0 mi ESE 10.4 mph - N/A   Overcast
1:35 AM 58.1 °F 58.1 °F 100% 30.17 in 7.0 mi ESE 13.8 mph - N/A   Overcast
1:55 AM 58.3 °F 58.3 °F 100% 30.18 in 7.0 mi ESE 8.1 mph - N/A   Overcast
2:15 AM 58.5 °F 58.5 °F 100% 30.18 in 4.0 mi SE 6.9 mph - N/A   Overcast
2:35 AM 58.6 °F 58.6 °F 100% 30.17 in 5.0 mi ESE 5.8 mph - N/A   Overcast
2:55 AM 59.0 °F 59.0 °F 100% 30.16 in 4.0 mi ESE 5.8 mph - N/A   Light Drizzle
3:15 AM 59.2 °F 59.2 °F 100% 30.15 in 4.0 mi SE 4.6 mph - N/A Thunderstorm Overcast
3:35 AM 59.2 °F 59.2 °F 100% 30.14 in 4.0 mi SE 4.6 mph - N/A Thunderstorm Overcast
3:55 AM 61.0 °F 61.0 °F 100% 30.14 in 7.0 mi SSE 5.8 mph - N/A   Overcast
4:15 AM 61.3 °F 61.3 °F 100% 30.13 in 7.0 mi SSE 6.9 mph - N/A   Overcast
4:35 AM 61.9 °F 61.9 °F 100% 30.12 in 7.0 mi SSE 8.1 mph - N/A   Overcast
4:55 AM 62.4 °F 62.4 °F 100% 30.12 in 7.0 mi South 5.8 mph - N/A   Overcast
5:15 AM 62.6 °F 62.6 °F 100% 30.12 in 10.0 mi SSE 5.8 mph - N/A   Overcast
5:35 AM 62.8 °F 62.8 °F 100% 30.11 in 7.0 mi SSE 8.1 mph - N/A   Overcast
5:55 AM 63.1 °F 63.1 °F 100% 30.11 in 10.0 mi SSE 8.1 mph - N/A   Overcast
6:15 AM 63.7 °F 63.7 °F 100% 30.12 in 10.0 mi SSE 5.8 mph - N/A   Overcast
6:35 AM 63.9 °F 63.9 °F 100% 30.12 in 10.0 mi SSE 5.8 mph - N/A   Overcast
6:55 AM 64.0 °F 64.0 °F 100% 30.13 in 10.0 mi SSE 4.6 mph - N/A   Overcast
7:15 AM 64.0 °F 64.0 °F 100% 30.14 in 10.0 mi SSE 4.6 mph - N/A   Overcast
7:35 AM 64.6 °F 64.6 °F 100% 30.14 in 10.0 mi South 6.9 mph - N/A   Overcast
7:55 AM 64.8 °F 64.8 °F 100% 30.14 in 10.0 mi South 5.8 mph - N/A   Overcast
8:15 AM 64.9 °F 64.9 °F 100% 30.14 in 10.0 mi South 5.8 mph - N/A   Overcast
8:35 AM 65.3 °F 65.3 °F 100% 30.15 in 10.0 mi South 9.2 mph - N/A   Overcast
8:55 AM 65.7 °F 65.7 °F 100% 30.15 in 10.0 mi South 5.8 mph - N/A   Overcast
9:15 AM 65.8 °F 65.8 °F 100% 30.15 in 10.0 mi South 9.2 mph - N/A   Overcast
9:35 AM 66.6 °F 66.6 °F 100% 30.15 in 10.0 mi South 9.2 mph - N/A   Overcast
9:55 AM 66.6 °F 66.6 °F 100% 30.15 in 10.0 mi South 11.5 mph - N/A   Overcast
10:15 AM 66.6 °F 66.6 °F 100% 30.15 in 10.0 mi SSW 10.4 mph - N/A   Overcast
10:35 AM 66.7 °F 66.7 °F 100% 30.15 in 10.0 mi SSW 8.1 mph - N/A   Overcast
10:55 AM 68.9 °F 66.9 °F 93% 30.15 in 10.0 mi SSW 11.5 mph - N/A   Overcast
11:15 AM 68.2 °F 66.2 °F 93% 30.14 in 10.0 mi SW 9.2 mph - N/A   Overcast
11:35 AM 69.3 °F 66.2 °F 90% 30.14 in 10.0 mi SSW 9.2 mph - N/A   Overcast
11:55 AM 70.2 °F 66.2 °F 87% 30.15 in 10.0 mi SSW 9.2 mph - N/A   Overcast
12:15 PM 70.0 °F 65.1 °F 85% 30.14 in 10.0 mi SW 6.9 mph - N/A   Overcast
12:35 PM 72.7 °F 64.8 °F 76% 30.13 in 10.0 mi SSW 9.2 mph - N/A   Overcast
12:55 PM 72.7 °F 64.4 °F 75% 30.13 in 10.0 mi SW 3.5 mph - N/A   Mostly Cloudy
1:15 PM 74.3 °F 64.2 °F 71% 30.12 in 10.0 mi Calm Calm - N/A   Mostly Cloudy
1:35 PM 75.2 °F 64.2 °F 69% 30.11 in 10.0 mi SSW 4.6 mph - N/A   Mostly Cloudy
1:55 PM 75.0 °F 63.3 °F 67% 30.11 in 10.0 mi Calm Calm - N/A   Mostly Cloudy
2:15 PM 76.3 °F 63.7 °F 65% 30.11 in 10.0 mi SSW 3.5 mph - N/A   Overcast
2:35 PM 77.7 °F 63.5 °F 61% 30.11 in 10.0 mi SSW 6.9 mph - N/A   Overcast
2:55 PM 77.5 °F 63.1 °F 61% 30.10 in 10.0 mi SW 3.5 mph - N/A   Overcast
3:15 PM 78.3 °F 63.5 °F 60% 30.10 in 10.0 mi SW 4.6 mph - N/A   Overcast
3:35 PM 79.5 °F 63.5 °F 58% 30.09 in 10.0 mi SW 3.5 mph - N/A   Overcast
3:55 PM 77.2 °F 62.6 °F 61% 30.09 in 10.0 mi Calm Calm - N/A   Mostly Cloudy
4:15 PM 78.3 °F 63.1 °F 60% 30.08 in 10.0 mi SSW 4.6 mph - N/A   Mostly Cloudy
4:35 PM 79.7 °F 63.3 °F 57% 30.08 in 10.0 mi WSW 6.9 mph - N/A   Overcast
4:55 PM 78.6 °F 62.6 °F 58% 30.08 in 10.0 mi Calm Calm - N/A   Mostly Cloudy
5:15 PM 79.3 °F 63.0 °F 57% 30.07 in 10.0 mi SSE 5.8 mph - N/A   Mostly Cloudy
5:35 PM 77.0 °F 64.9 °F 66% 30.07 in 10.0 mi SSE 6.9 mph - N/A   Overcast
5:55 PM 76.1 °F 65.7 °F 70% 30.07 in 10.0 mi SE 5.8 mph - N/A   Overcast
6:15 PM 75.7 °F 65.1 °F 69% 30.07 in 10.0 mi SSE 8.1 mph - N/A   Overcast
6:35 PM 76.1 °F 65.1 °F 69% 30.07 in 10.0 mi SSE 12.7 mph - N/A   Mostly Cloudy
6:55 PM 74.7 °F 65.1 °F 72% 30.07 in 10.0 mi SSE 8.1 mph - N/A   Scattered Clouds
7:15 PM 74.8 °F 65.5 °F 73% 30.07 in 10.0 mi South 8.1 mph - N/A   Scattered Clouds
7:35 PM 73.2 °F 65.3 °F 76% 30.07 in 10.0 mi SSE 10.4 mph - N/A   Clear
7:55 PM 71.6 °F 66.2 °F 83% 30.07 in 10.0 mi South 9.2 mph - N/A   Clear
8:15 PM 70.2 °F 66.6 °F 88% 30.07 in 10.0 mi South 9.2 mph - N/A   Clear
8:35 PM 68.7 °F 66.7 °F 93% 30.08 in 10.0 mi South 9.2 mph - N/A   Clear
8:55 PM 67.6 °F 67.1 °F 98% 30.08 in 10.0 mi SSE 9.2 mph - N/A   Clear
9:15 PM 66.9 °F 66.9 °F 100% 30.09 in 10.0 mi SSE 8.1 mph - N/A   Clear
9:35 PM 66.4 °F 66.4 °F 100% 30.10 in 10.0 mi South 11.5 mph - N/A   Clear
9:55 PM 66.2 °F 66.2 °F 100% 30.10 in 10.0 mi South 9.2 mph - N/A   Clear
10:15 PM 65.3 °F 65.3 °F 100% 30.10 in 10.0 mi South 11.5 mph - N/A   Clear
10:35 PM 65.1 °F 65.1 °F 100% 30.11 in 10.0 mi South 10.4 mph - N/A   Clear
10:55 PM 64.8 °F 64.8 °F 100% 30.11 in 10.0 mi South 10.4 mph - N/A   Clear
11:15 PM 64.4 °F 64.4 °F 100% 30.11 in 10.0 mi South 11.5 mph - N/A   Clear
11:35 PM 64.4 °F 64.4 °F 100% 30.11 in 10.0 mi South 12.7 mph - N/A   Clear
11:55 PM 63.9 °F 63.9 °F 100% 30.11 in 10.0 mi South 12.7 mph - N/A   Clear